Preview of NWS' New Version of Forecast
This preview is not operational and should not be used for support decisions.
Latest weather observations around

Dallas / Addison Airport (KADS)

Using English Units (Switch to International System of Units)
Date/ Time (CDT) Wind (mph) Vis. (mi) Weather Sky Cond. Temp (°F) Rel. Humidity Wind Chill (°F) Heat Index (°F) Pressure Precip. (in)
Air Dwpt 6 hour Altimeter (inHg) Sea level (inHg) 1 hr 3 hr 6 hr
Max Min
Aug 20 11:47 SSE 11 10 Clear CLR 95 68     42%   100 30.05        
Aug 20 10:47 S 13 10 Clear CLR 91 70     49%   97 30.04        
Aug 20 09:47 SSW 6 10 Clear CLR 88 70     55%   93 30.03        
Aug 20 08:47 SW 5 10 Clear CLR 86 72     62%   92 30.03        
Aug 20 07:47 S 6 10 Clear CLR 84 72     66%   90 30.03        
Aug 20 06:47 S 6 10 Clear CLR 82 72     70%   87 30.01        
Aug 20 05:47 S 3 10 Clear CLR 82 72     70%   87 30        
Aug 20 05:35 SSE 3 10 Clear CLR 81 71     72%   85 30.01        
Aug 20 05:15 S 5 10 Clear CLR 83 71     67%   88 30.01        
Aug 20 04:55 SSE 6 10 Clear CLR 81 71     71%   86 30.01        
Aug 20 04:35 S 5 10 Clear CLR 84 71     66%   89 30        
Aug 20 04:15 S 3 10 Clear CLR 83 71     67%   87 30        
Aug 20 03:55 S 5 10 Clear CLR 85 71     63%   90 29.99        
Aug 20 03:35 S 8 10 Clear CLR 85 70     61%   90 29.99        
Aug 20 03:15 S 6 10 Clear CLR 85 70     60%   90 29.98        
Aug 20 02:55 S 7 10 Clear CLR 86 70     60%   90 29.99        
Aug 20 02:35 SSE 8 10 Clear CLR 86 70     59%   90 29.99        
Aug 20 02:15 S 6 10 Clear CLR 86 69     57%   91 29.99        
Aug 20 01:55 SSE 9 10 Clear CLR 86 69     56%   90 29.99        
Aug 20 01:35 SSE 7 10 Clear   85 69     58%   89 30        
Aug 20 01:15 SSE 7 10 Clear   86 69     56%   90 30        
Aug 20 00:55 SSE 9 10 Clear   87 69     55%   91 30.01        
Aug 20 00:35 SSE 9 10 Clear CLR 88 69     53%   92 30.01        
Aug 20 00:15 SSE 8 10 Clear CLR 88 69     54%   92 30.01        
Aug 19 23:55 SSE 8 10 Clear CLR 88 69     54%   92 30.01        
Aug 19 23:35 SE 8 10 Clear CLR 89 69     52%   94 30.01        
Aug 19 23:15 SE 8 10 Clear CLR 89 69     52%   93 30        
Aug 19 22:55 SE 10 10 Clear CLR 90 69     50%   94 30.01        
Aug 19 22:35 SSE 6 10 Clear CLR 90 69     50%   95 30        
Aug 19 22:15 SE 8 10 Clear CLR 90 69     49%   95 29.99        
Aug 19 20:47 SE 14 10 Clear CLR 93 66     41%   96 29.95        
Aug 19 19:47 SSE 11 10 Clear CLR 95 66     39%   98 29.94        
Aug 19 18:47 SSE 13 10 Clear CLR 97 64     35%   99 29.92        
Aug 19 17:47 ESE 9 10 Mostly Clear FEW045 99 64     33%   102 29.93        
Aug 19 16:47 S 8 10 Clear CLR 100 64     31%   104 29.93        
Aug 19 15:47 SE 9 10 Clear CLR 99 64     33%   102 29.95        
Aug 19 14:47 SSE 14 10 Clear CLR 99 66     35%   103 29.97        
Aug 19 13:47 S 6 10 Clear CLR 97 68     39%   102 29.99        
Aug 19 12:47 SW 5 10 Clear CLR 93 70     47%   99 30.01        
Aug 19 11:47 SSW 9 10 Clear CLR 91 68     46%   96 30.01        
Aug 19 10:47 SSW 8 10 Clear CLR 90 72     56%   96 30.01        
Aug 19 09:47 S 10 10 Clear CLR 86 72     62%   92 30        
Aug 19 08:47 S 15 10 Clear CLR 82 72     70%   87 30        
Aug 19 07:47 SSE 10 10 Clear CLR 82 72     70%   87 29.98        
Aug 19 06:54 S 8 10 Clear CLR 82 70     66%   86 29.97        
Aug 19 05:47 S 7 10 Clear CLR 82 72     70%   87 29.96        
Aug 19 05:35 S 5 10 Clear CLR 81 72     74%   85 29.97        
Aug 19 05:15 S 7 10 Clear CLR 81 72     72%   86 29.95        
Aug 19 04:55 S 7 10 Clear CLR 83 72     70%   88 29.94        
Aug 19 04:35 SSE 9 10 Clear CLR 83 72     70%   88 29.94        
Aug 19 04:15 SSE 7 10 Clear CLR 83 72     70%   87 29.94        
Aug 19 03:55 SSE 8 10 Clear CLR 82 72     70%   87 29.94        
Aug 19 03:35 SSE 8 10 Clear CLR 83 71     68%   88 29.94        
Aug 19 03:15 SSE 10 10 Clear CLR 83 71     67%   88 29.94        
Aug 19 02:55 SSE 8 10 Clear CLR 84 71     65%   89 29.93        
Aug 19 02:35 S 7 10 Clear CLR 85 71     63%   90 29.93        
Aug 19 02:15 S 7 10 Clear CLR 86 71     61%   92 29.93        
Aug 19 01:55 S 9 10 Clear CLR 87 71     59%   93 29.93        
Aug 19 01:35 S 10 10 Clear CLR 87 71     59%   93 29.92        
Aug 19 01:15 S 9 10 Clear CLR 87 71     58%   93 29.92        
Aug 19 00:55 S 8 10 Clear CLR 87 70     56%   92 29.92        
Aug 19 00:35 SSE 8 10 Clear CLR 87 69     56%   91 29.92        
Aug 19 00:15 SE 8 10 Clear CLR 87 69     55%   92 29.92        
Aug 18 23:55 ESE 8 10 Clear CLR 88 69     54%   92 29.92        
Aug 18 23:35 SE 6 10 Clear CLR 88 69     53%   93 29.91        
Aug 18 23:15 SSE 8 10 Clear CLR 89 69     52%   93 29.91        
Aug 18 22:55 SE 8 10 Clear CLR 89 69     52%   94 29.91        
Aug 18 22:35 SE 9 10 Clear CLR 90 69     50%   94 29.9        
Aug 18 22:15 SE 8 10 Clear CLR 90 68     49%   94 29.9        
Aug 18 21:47 SE 10 10 Clear CLR 91 68     46%   96 29.87        
Aug 18 20:48 SE 10 10 Clear CLR 93 68     44%   98 29.85        
Aug 18 19:47 SSE 15 10 Mostly Clear FEW130 95 66     39%   98 29.84        
Aug 18 18:47 SSE 16 10 Mostly Clear FEW080 97 66     37%   101 29.83        
Aug 18 17:47 SSE 16 10 Clear CLR 99 66     35%   103 29.83        
Aug 18 16:47 SSE 15 10 Mostly Clear FEW050 99 68     37%   104 29.85        
Aug 18 15:53 SE 16 10 Mostly Clear FEW050 99 66     35%   103 29.87        
Aug 18 14:47 S 11 10 Mostly Clear FEW050 97 68     39%   102 29.88        
Aug 18 13:47 SE 9 10 Clear CLR 95 70     44%   101 29.89        
Aug 18 12:47 SSE 9 10 Clear CLR 95 70     44%   101 29.91        
Aug 18 11:47 S 10 10 Clear CLR 91 70     49%   97 29.91        
Aug 18 10:51 S 9 10 Clear CLR 90 72     56%   96 29.92        
Aug 18 09:47 S 16 10 Clear CLR 86 70     59%   91 29.91        
Aug 18 08:47 S 10 10 Clear CLR 82 72     70%   87 29.9        
Aug 18 07:47 S 11 10 Clear CLR 81 70     70%   84 29.88        
Aug 18 06:47 S 11 10 Clear CLR 81 72     74%   85 29.86        
Aug 18 05:47 S 10 10 Clear CLR 82 72     70%   87 29.84        
Aug 18 05:35 SSE 14 10 Clear CLR 81 72     75%   86 29.85        
Aug 18 05:15 S 11 10 Clear CLR 81 72     74%   86 29.86        
Aug 18 04:55 S 8 10 Clear CLR 82 72     72%   87 29.86        
Aug 18 04:40 SSE 9 10 Clear CLR 82 72     72%   87 29.86        
Aug 18 04:15 SSE 8 10 Clear CLR 82 72     72%   88 29.86        
Aug 18 03:55 S 7 10 Clear CLR 83 72     71%   88 29.87        
Aug 18 03:35 S 7 10 Clear CLR 83 72     70%   89 29.86        
Aug 18 03:15 SSE 11 10 Clear CLR 83 72     70%   89 29.85        
Aug 18 02:55 S 11 10 Clear CLR 84 72     69%   90 29.85        
Aug 18 02:35 SSE 13 10 Clear CLR 84 72     69%   90 29.85        
Aug 18 02:15 S 11 10 Clear CLR 84 72     68%   90 29.86        
Aug 18 01:55 SSE 10 10 Clear CLR 84 72     68%   90 29.86        
Aug 18 01:35 SSE 14 10 Clear CLR 84 72     68%   91 29.87        
Aug 18 01:15 SSE 13 10 Clear CLR 85 72     67%   91 29.87        
Aug 18 00:55 SSE 14 10 Clear CLR 85 72     66%   91 29.87        
Aug 18 00:35 SSE 14 10 Clear CLR 85 72     65%   92 29.86        
Aug 18 00:15 SSE 14 10 Clear CLR 87 72     61%   93 29.86        
Aug 17 23:55 SSE 15 10 Clear CLR 87 71     58%   93 29.86        
Aug 17 23:35 SSE 11 10 Clear CLR 88 71     57%   94 29.86        
Aug 17 23:15 SE 11 10 Clear CLR 88 71     56%   94 29.85        
Aug 17 22:55 SE 13 10 Clear CLR 88 71     56%   94 29.85        
Aug 17 22:35 SE 13 10 Clear CLR 89 71     55%   95 29.84        
Aug 17 22:15 SE 13 10 Clear CLR 89 71     55%   95 29.83        
Aug 17 21:47 SE 10 10 Clear CLR 90 70     52%   95 29.8        
Aug 17 20:47 SE 11 10 Clear CLR 91 68     46%   96 29.78        
Aug 17 18:47 ESE 15 10 Mostly Clear FEW055 97 66     37%   101 29.78        
Aug 17 17:47 SSE 9 10 Mostly Clear FEW055 99 66     35%   103 29.79        
Aug 17 16:47 SSE 13 10 Mostly Clear FEW055 99 66     35%   103 29.79        
Aug 17 15:47 SE 13 10 Mostly Clear FEW055 97 68     39%   102 29.81        
Aug 17 14:47 SE 13 10 Mostly Clear FEW055 97 70     42%   104 29.83        
Aug 17 13:47 SSE 10 10 Clear CLR 95 70     44%   101 29.86        
Aug 17 12:47 S 10 10 Clear CLR 93 70     47%   99 29.88        
Aug 17 11:47 S 10 10 Clear CLR 91 70     49%   97 29.91        
Aug 17 09:47 S 11 10 Clear CLR 86 70     59%   91 29.91        
Notice The following observation data may not be complete
May 15 13:58   10 Mostly Cloudy BKN160          %              
May 15 04:35 S 9 10 Clear   76 67     74%   77 29.9        
May 15 03:35 S 10 10 Partly Cloudy SCT070 SCT080 77 67     72%   78 29.91        
Notice The following observation data may not be complete
May 15 03:15   10 Clear CLR          %              
May 15 02:15 SSE 10 10 Clear CLR 77 67     71%   78 29.91        
May 15 01:15 SSE 11 10 Clear CLR 78 67     71%   78 29.92        
May 14 17:47 SSE 14 10 Partly Cloudy SCT048 86 66     52%   88 29.88        
May 14 10:47 S 13 10 Partly Cloudy SCT024 SCT029 82 68     62%   85 30        
May 14 05:35 SSE 11 10 Mostly Cloudy BKN075 74 69     85%   75 29.99        
May 14 02:55 SSE 9 10 Partly Cloudy SCT080 76 68     76%   77 29.98        
May 13 22:15 SSE 11 10 Clear CLR 81 67     63%   83 29.95        
May 13 14:55 SSE 15 10 Partly Cloudy SCT047 SCT060 88 64     46%   89 29.98        
May 13 03:15 S 10 10 Clear CLR 75 69     80%   76 29.98        
May 12 18:48   10 Partly Cloudy SCT060 86 63     46%   87 29.91        
May 12 13:47 SSE 17 13 Mostly Cloudy BKN050 86 63     46%   87 29.97        
May 12 09:47 S 13 10 Cloudy BKN022 OVC030 79 66     65%   79 30        
May 12 02:55 S 15 10 Clear CLR 73 64     74%   74 29.92        
May 12 00:35 S 16 10 Clear CLR 78 62     59%   78 29.92        
May 11 23:55 S 15 10 Clear CLR 78 62     57%   78 29.92        
May 11 19:52 S 16 10 Clear CLR 84 59     43%   84 29.84        
May 11 16:02 S 18 10 Clear CLR 86 61     43%   86 29.88        
May 11 11:47   10 Mostly Cloudy BKN039 82 61     48%   83 29.95        
Jun 12 01:15 SSE 16 10 Clear CLR 79 71     76%   82 29.93        
Jun 11 23:15 SE 8 10 Clear CLR 81 68     65%   84 29.93        
Notice The following observation data may not be complete
Jun 11 22:35   10 Clear CLR          %              
Jun 11 22:15 SE 13 10 Clear   82 68     63%   84 29.91        
Jun 11 02:15 SSE 10 10 Clear CLR 75 68     79%   76 29.91        
Jun 10 12:47 S 16 10 Clear CLR 82 66     58%   85 29.92        
Jun 10 04:15 SSE 9 10 Clear CLR 70 67     90%   71 29.88        
Notice The following observation data may not be complete
Jun 09 00:35   10 Clear CLR          %              
Jun 08 18:47 ESE 9 13 Partly Cloudy SCT065 84 57     40%   83 29.88        
Jun 08 04:55 E 6 10 Mostly Cloudy BKN050 72 61     68%   72 29.99        
Notice The following observation data may not be complete
Jun 08 04:35   10 Cloudy OVC050          %              
Jun 08 03:15 E 5 10 Mostly Cloudy BKN050 73 61     64%   73 29.98        
Jun 06 04:15 Calm 10 Clear CLR 70 68     95%     29.85        
Notice The following observation data may not be complete
Jun 06 03:35   10 Clear CLR          %